Wind_Speed
11 11 11 12 12 12 12 12 12 12 11 10 10 10 11 11 10 13 15 10 8 11 10 9 13 17 19 26 13 9 4 5 6 14 4 5 10 9 13 13 10 5 8 25 33
13 13 13 13 13 12 12 12 12 11 10 10 9 10 10 12 12 16 13 10 9 10 11 11 22 25 22 20 14 4 3 5 5 3 4 28 31 16 6 16 8 6 20 25 34
14 15 15 14 14 13 13 12 11 10 10 9 8 9 9 10 11 4 11 13 12 11 10 9 14 19 25 24 6 3 4 5 11 8 12 15 25 8 21 4 9 22 24 32 38
16 16 16 15 15 14 13 12 10 9 8 8 7 7 8 7 3 2 2 10 11 10 10 11 14 23 13 7 10 2 6 4 6 8 10 8 20 8 19 11 13 25 32 33 34
18 18 18 17 16 15 13 11 9 8 7 6 5 6 6 4 10 3 8 11 12 11 11 11 22 25 8 13 12 5 4 7 11 9 10 25 18 10 11 15 17 22 29 35 31
20 20 19 18 17 15 13 10 8 6 5 5 4 5 4 5 5 5 6 8 13 11 8 10 18 21 10 14 8 11 6 11 16 6 9 7 10 8 16 18 24 22 24 34 37
21 21 21 20 18 16 13 9 7 5 4 4 4 5 8 12 1 4 3 3 12 9 8 11 16 12 19 10 19 14 6 9 13 5 1 3 0 2 20 28 22 22 22 30 37
21 22 21 20 19 16 13 9 5 3 3 3 3 5 8 2 5 6 7 7 7 10 13 13 12 10 12 19 21 12 6 6 6 8 7 3 7 10 28 30 23 24 32 27 34
22 22 22 20 19 16 12 7 4 2 2 2 2 5 9 6 10 9 8 13 9 7 10 9 8 9 20 8 9 8 8 2 4 10 4 6 2 11 29 30 35 38 35 29 38
23 22 22 21 19 15 11 5 2 3 3 4 6 7 8 9 6 9 10 11 12 10 12 12 7 5 6 4 7 8 3 0 3 6 7 2 2 8 6 22 34 37 30 34 35
23 23 22 21 19 15 9 3 6 2 8 10 7 6 6 6 7 10 9 8 14 12 6 15 4 7 14 12 13 13 6 7 7 8 5 3 4 10 16 13 20 29 31 34 34
23 22 21 20 18 12 6 4 7 8 11 19 23 21 15 9 8 10 12 9 10 6 11 6 9 14 15 14 10 11 5 8 8 7 3 6 8 10 8 14 24 27 32 34 33
24 22 20 17 13 7 5 7 9 7 6 14 23 20 12 9 14 18 18 16 9 9 10 10 14 13 16 6 8 9 5 6 9 5 7 8 10 11 13 20 22 31 38 38 40
24 22 19 14 9 6 7 10 8 7 3 5 9 12 16 10 9 20 22 15 8 9 10 8 16 10 8 4 6 6 10 9 8 6 4 2 11 11 10 6 11 27 30 39 39
24 21 16 14 9 8 4 2 11 2 3 14 9 10 15 14 8 10 21 17 9 10 5 10 10 8 8 7 5 6 8 7 6 8 6 8 2 9 8 8 8 12 31 33 40
22 21 15 14 9 4 5 5 7 1 6 10 10 9 7 16 18 11 15 12 12 9 10 12 25 11 4 4 5 5 5 8 6 1 4 16 7 13 6 8 8 14 19 24 41
21 20 15 12 3 2 2 10 2 4 6 10 7 12 8 9 10 10 9 7 5 4 7 14 18 17 13 5 4 6 3 4 4 2 7 11 0 9 9 11 10 11 24 20 43
20 17 12 10 14 4 1 2 5 9 13 8 12 16 10 9 11 11 9 7 11 10 7 7 10 7 8 8 7 6 6 5 5 4 7 8 2 6 7 15 16 24 29 24 42
18 10 6 5 10 11 4 4 4 5 8 10 1 6 8 11 9 13 11 11 11 14 8 3 1 7 7 2 9 4 4 10 4 6 4 3 6 7 10 4 5 2 2 27 36
16 7 8 4 9 10 3 5 4 9 9 11 4 3 7 8 11 9 5 8 8 2 5 5 6 6 9 6 8 6 5 5 4 2 6 3 4 4 4 8 11 9 19 23 25
8 4 12 10 11 6 4 6 11 6 8 6 8 9 13 5 6 6 3 6 16 8 8 6 3 11 6 3 5 2 5 5 2 3 3 4 4 2 6 8 16 19 31 11 27
4 4 11 13 8 6 5 6 4 6 7 3 6 5 7 10 6 8 8 5 15 16 4 6 2 5 8 7 12 6 7 6 6 10 4 4 5 6 9 9 9 17 26 18 33
6 8 10 13 3 6 12 15 2 7 8 3 5 9 9 7 5 6 5 10 12 6 3 5 5 4 10 10 17 4 3 6 4 2 4 4 6 7 22 12 27 22 18 33 22
5 3 7 13 16 12 13 5 6 3 3 8 8 9 7 6 8 5 6 7 15 11 6 2 2 1 3 7 7 14 18 18 8 4 8 5 9 7 19 22 36 40 36 25 35
2 4 11 1 8 9 8 8 2 4 1 5 4 4 6 5 8 8 12 12 11 10 9 5 3 6 9 14 14 14 16 19 16 13 10 11 8 13 14 14 17 22 36 40 28
10 7 14 15 15 5 3 2 7 10 6 6 12 12 13 8 6 7 9 7 4 10 8 7 5 8 8 10 12 11 16 18 20 20 19 14 11 8 13 20 27 28 29 31 29
14 6 7 12 9 3 4 8 11 11 7 12 10 6 11 10 15 15 14 14 11 5 4 2 1 3 5 7 8 4 12 12 8 20 16 13 14 21 17 25 23 21 15 15 14
Wind_Direction
352 343 335 328 324 320 316 313 312 312 312 311 308 305 304 297 279 263 247 223 253 265 284 290 281 284 276 266 210 149 114 173 199 244 233 192 98 68 96 108 90 98 115 145 151
0 353 344 336 330 324 317 313 310 311 312 312 309 305 307 304 294 258 220 199 233 257 281 292 299 311 256 260 193 117 119 242 9 55 354 87 80 299 42 42 32 122 146 151 156
4 356 349 342 335 328 321 315 311 309 310 312 308 305 308 317 315 282 210 212 233 249 262 281 303 306 298 298 156 159 165 22 342 7 311 123 82 99 46 44 238 161 163 161 152
6 360 354 347 339 332 324 315 310 307 310 310 306 303 310 310 14 277 240 220 229 225 246 266 291 288 277 317 118 251 159 72 285 325 302 56 135 136 121 252 282 203 164 163 162
7 2 357 351 343 337 331 319 309 304 305 303 301 298 311 295 275 268 316 223 212 211 237 272 287 296 355 331 4 297 51 356 309 301 342 106 152 156 191 183 162 176 162 170 166
3 0 357 353 346 339 334 322 309 301 299 298 293 288 290 271 354 319 334 191 192 205 218 272 282 318 309 310 304 295 5 287 275 285 330 56 155 118 214 173 157 171 164 174 180
357 356 354 351 348 341 336 326 309 296 293 286 277 272 260 239 170 322 283 247 195 202 233 243 308 304 318 317 321 321 294 270 252 193 232 2 220 213 181 175 176 176 173 180 184
352 351 350 348 346 341 336 326 308 288 285 267 261 285 258 347 209 244 206 218 214 199 241 279 320 342 301 295 299 290 258 268 208 174 168 168 290 200 188 176 178 119 307 175 173
346 347 346 345 344 340 337 326 301 283 268 207 161 308 278 231 236 206 197 209 203 218 241 278 339 296 290 277 286 267 248 150 223 171 187 183 252 293 189 193 144 160 173 167 175
342 343 342 341 341 338 331 323 285 272 257 214 220 290 239 238 209 186 192 183 194 218 229 242 249 231 284 276 260 291 349 144 39 232 195 102 15 292 228 192 157 173 184 164 172
337 338 339 337 337 334 322 271 351 242 233 220 276 251 122 100 148 183 199 205 192 209 221 235 197 235 246 249 256 277 330 5 296 274 268 170 241 258 269 271 171 177 173 168 174
333 334 335 334 334 331 311 230 18 323 292 273 251 259 277 162 181 206 190 206 215 222 229 270 233 234 247 259 287 306 350 312 296 293 345 333 277 263 261 262 191 184 169 174 173
329 329 331 331 333 352 341 318 299 5 281 283 230 226 223 222 227 196 192 217 236 213 237 205 248 234 228 268 326 303 246 247 254 287 354 335 304 286 259 237 235 188 183 179 174
325 325 328 328 324 332 340 9 358 337 301 247 189 222 215 201 245 229 191 203 231 252 266 242 254 255 297 267 217 284 295 323 349 20 279 281 294 286 273 262 176 177 183 180 174
325 320 324 317 292 252 332 10 326 270 301 148 174 211 186 187 115 221 185 200 253 270 321 263 288 300 238 242 301 246 318 310 318 320 332 288 314 271 299 152 178 185 193 184 176
324 314 313 302 285 341 256 341 314 293 248 176 143 182 169 212 262 148 165 198 243 266 282 273 281 278 250 266 327 324 340 301 297 240 326 265 192 283 194 159 170 193 200 195 173
322 305 295 270 218 97 285 292 289 238 159 149 171 160 202 198 244 168 177 198 197 257 270 271 255 245 237 248 246 290 309 318 332 358 225 275 38 225 151 169 174 187 198 203 168
323 299 281 255 215 164 20 290 250 280 313 214 159 163 177 200 212 230 181 204 214 218 256 272 322 139 197 188 191 258 193 169 281 274 273 305 309 295 276 178 174 189 197 190 161
327 298 274 206 198 163 232 232 245 318 66 322 152 185 196 200 201 207 200 205 222 197 194 294 168 294 122 151 146 261 260 235 256 283 338 250 309 12 355 96 157 340 129 189 163
329 288 258 208 170 152 217 249 284 273 19 341 336 337 319 224 201 181 209 224 228 126 199 360 356 304 148 172 239 186 240 358 336 269 274 348 98 208 287 10 355 359 334 174 170
337 314 143 177 127 206 226 245 287 306 36 323 342 338 333 71 268 289 23 19 16 73 70 21 47 298 347 223 339 19 301 302 197 168 205 297 289 250 61 15 9 345 336 224 170
318 266 176 161 188 215 233 246 291 354 53 296 322 316 322 359 23 218 85 53 41 39 24 356 236 307 281 308 64 19 16 35 291 327 275 220 255 33 31 17 350 337 342 332 175
324 282 182 185 239 245 256 259 105 352 7 319 341 0 17 360 351 28 102 92 53 59 72 345 334 8 343 344 358 0 341 312 306 46 298 357 314 314 349 6 344 337 347 16 8
331 273 161 208 252 285 290 315 160 113 285 1 343 334 349 322 313 315 353 127 100 111 78 16 335 60 227 288 343 350 345 344 347 338 306 306 339 345 32 20 17 24 11 10 9
285 310 357 174 231 256 275 359 17 134 59 105 291 273 40 358 354 26 12 12 79 31 23 36 26 23 348 347 342 336 341 336 329 313 301 305 55 58 37 24 13 17 23 23 344
0 348 336 305 327 329 36 340 324 38 25 25 29 9 48 48 18 353 3 14 8 0 8 359 338 356 337 339 342 336 354 23 14 14 2 4 66 53 74 46 28 22 26 33 17
359 320 327 287 294 318 33 22 48 27 78 62 27 355 49 3 330 313 298 291 286 290 296 323 323 15 295 303 319 12 14 33 19 34 23 32 350 8 48 42 35 26 31 36 42
Height
1539 1537 1535 1534 1532 1531 1529 1527 1526 1524 1523 1522 1521 1519 1518 1516 1516 1515 1513 1515 1516 1517 1517 1515 1514 1510 1509 1508 1514 1510 1524 1538 1532 1521 1505 1501 1508 1513 1515 1520 1517 1519 1525 1531 1532
1539 1537 1535 1533 1531 1529 1527 1526 1524 1523 1522 1521 1519 1518 1516 1514 1513 1511 1512 1513 1515 1517 1517 1516 1509 1505 1506 1504 1507 1506 1520 1515 1499 1500 1498 1503 1508 1524 1515 1524 1523 1520 1524 1532 1534
1539 1537 1534 1531 1529 1527 1525 1524 1522 1521 1520 1519 1518 1517 1515 1514 1512 1507 1508 1511 1514 1516 1517 1514 1510 1507 1503 1499 1499 1501 1510 1501 1500 1499 1498 1501 1512 1523 1519 1527 1529 1520 1522 1529 1534
1539 1536 1533 1531 1528 1526 1524 1522 1520 1519 1519 1518 1517 1516 1515 1514 1514 1508 1509 1511 1514 1516 1516 1514 1510 1508 1504 1501 1497 1502 1498 1500 1500 1499 1497 1499 1506 1506 1511 1516 1523 1526 1521 1525 1530
1539 1536 1533 1529 1527 1524 1522 1520 1518 1518 1517 1517 1516 1515 1515 1514 1508 1508 1509 1509 1512 1515 1515 1513 1511 1508 1505 1500 1497 1498 1498 1498 1499 1498 1496 1499 1502 1499 1505 1503 1511 1515 1518 1521 1526
1538 1535 1532 1528 1525 1523 1520 1518 1517 1516 1516 1515 1515 1514 1514 1514 1508 1507 1507 1507 1511 1513 1515 1513 1511 1509 1505 1502 1501 1498 1498 1498 1497 1497 1496 1496 1505 1500 1502 1503 1507 1514 1516 1517 1520
1538 1534 1531 1527 1524 1521 1519 1517 1516 1515 1515 1515 1514 1514 1513 1509 1509 1508 1507 1509 1511 1513 1513 1512 1514 1512 1509 1505 1500 1497 1500 1495 1493 1494 1495 1494 1498 1495 1494 1501 1509 1513 1516 1517 1516
1537 1533 1530 1526 1523 1520 1518 1516 1515 1514 1514 1514 1514 1513 1508 1507 1507 1509 1509 1510 1511 1513 1514 1514 1513 1512 1511 1506 1501 1500 1498 1512 1491 1491 1493 1494 1512 1492 1491 1497 1505 1515 1525 1517 1517
1536 1532 1529 1525 1522 1519 1517 1515 1514 1514 1514 1514 1514 1514 1508 1506 1506 1506 1508 1510 1511 1513 1514 1515 1515 1516 1512 1511 1513 1499 1515 1504 1497 1488 1490 1492 1499 1485 1489 1491 1501 1503 1505 1511 1515
1534 1531 1527 1524 1520 1518 1515 1514 1514 1513 1513 1513 1514 1517 1505 1501 1503 1505 1506 1509 1511 1513 1514 1515 1516 1517 1513 1516 1537 1514 1504 1495 1501 1492 1489 1492 1493 1488 1485 1484 1492 1496 1499 1501 1506
1532 1529 1526 1522 1519 1516 1515 1515 1516 1515 1512 1507 1504 1500 1499 1500 1503 1505 1506 1508 1509 1511 1515 1511 1520 1527 1513 1504 1499 1496 1497 1502 1493 1484 1487 1489 1490 1487 1482 1479 1483 1486 1491 1496 1499
1530 1527 1524 1520 1517 1514 1513 1513 1513 1515 1507 1502 1501 1501 1500 1500 1503 1504 1506 1508 1507 1512 1508 1514 1521 1504 1498 1495 1495 1495 1498 1505 1492 1482 1484 1489 1491 1481 1477 1476 1476 1479 1485 1490 1496
1528 1525 1521 1518 1515 1514 1513 1513 1512 1512 1508 1495 1494 1497 1498 1501 1500 1500 1504 1505 1505 1509 1506 1515 1501 1493 1494 1494 1500 1499 1500 1499 1500 1485 1484 1489 1497 1483 1468 1468 1470 1474 1478 1483 1487
1525 1522 1519 1517 1517 1514 1512 1513 1512 1512 1517 1493 1492 1493 1495 1497 1496 1494 1497 1503 1501 1505 1500 1500 1489 1489 1491 1495 1493 1512 1488 1487 1491 1500 1522 1488 1522 1484 1468 1463 1462 1468 1473 1477 1481
1522 1519 1518 1515 1514 1512 1512 1512 1512 1512 1539 1482 1486 1487 1490 1494 1489 1491 1495 1499 1502 1500 1498 1503 1492 1492 1494 1492 1486 1497 1486 1491 1489 1501 1504 1499 1518 1485 1464 1468 1465 1464 1467 1470 1474
1519 1515 1514 1513 1511 1511 1512 1512 1512 1523 1527 1483 1481 1485 1489 1490 1489 1490 1494 1497 1498 1498 1493 1491 1485 1484 1482 1481 1483 1482 1488 1491 1493 1504 1537 1495 1508 1487 1474 1464 1462 1460 1461 1464 1468
1515 1512 1510 1510 1509 1509 1510 1512 1522 1527 1468 1478 1483 1482 1488 1491 1490 1489 1493 1499 1507 1513 1513 1492 1485 1475 1478 1486 1483 1487 1500 1541 1541 1538 1540 1483 1492 1484 1453 1450 1452 1454 1455 1457 1461
1510 1507 1506 1506 1507 1509 1510 1513 1528 1490 1481 1465 1469 1475 1487 1483 1486 1484 1489 1499 1490 1495 1505 1509 1507 1471 1472 1482 1491 1492 1500 1537 1543 1545 1523 1479 1492 1478 1453 1445 1447 1450 1451 1452 1457
1506 1503 1502 1503 1504 1509 1511 1522 1503 1484 1476 1474 1466 1477 1482 1475 1476 1481 1484 1487 1480 1483 1505 1500 1493 1470 1469 1472 1480 1488 1503 1486 1509 1503 1518 1497 1473 1457 1453 1449 1447 1450 1449 1451 1454
1503 1502 1500 1502 1503 1507 1511 1511 1494 1479 1476 1475 1482 1473 1483 1474 1477 1478 1478 1471 1473 1469 1474 1481 1507 1475 1469 1472 1473 1479 1476 1509 1512 1527 1530 1504 1492 1495 1469 1465 1459 1454 1455 1450 1452
1504 1503 1499 1501 1504 1507 1513 1500 1486 1479 1479 1480 1481 1483 1480 1477 1477 1480 1478 1474 1470 1472 1472 1477 1492 1494 1477 1482 1487 1486 1494 1490 1496 1505 1529 1531 1509 1468 1474 1467 1464 1462 1457 1454 1453
1506 1504 1501 1503 1506 1503 1502 1491 1483 1478 1479 1479 1478 1478 1481 1477 1481 1482 1484 1479 1475 1478 1491 1489 1491 1510 1495 1476 1476 1480 1491 1502 1524 1517 1506 1506 1505 1464 1465 1464 1468 1469 1465 1456 1452
1506 1502 1501 1502 1505 1499 1490 1485 1481 1481 1482 1480 1480 1480 1478 1483 1491 1483 1482 1481 1480 1485 1494 1493 1505 1524 1512 1491 1478 1490 1485 1486 1490 1495 1512 1518 1513 1470 1465 1463 1465 1466 1465 1462 1460
1508 1501 1498 1500 1498 1496 1491 1480 1481 1484 1485 1485 1485 1483 1483 1486 1482 1486 1484 1482 1484 1489 1491 1491 1500 1512 1533 1518 1503 1504 1492 1484 1489 1508 1504 1504 1501 1482 1493 1494 1488 1483 1479 1461 1462
1509 1501 1502 1497 1495 1493 1487 1487 1482 1485 1486 1488 1489 1488 1491 1496 1494 1499 1495 1492 1491 1493 1493 1495 1512 1508 1506 1502 1500 1501 1500 1495 1499 1494 1505 1494 1505 1510 1512 1512 1509 1501 1485 1468 1459
1513 1512 1505 1500 1492 1491 1489 1489 1488 1488 1489 1494 1498 1494 1496 1508 1509 1510 1504 1503 1500 1498 1499 1498 1516 1510 1516 1504 1504 1509 1505 1507 1510 1503 1497 1491 1510 1516 1518 1517 1505 1495 1491 1488 1478
1516 1514 1513 1501 1495 1492 1494 1493 1494 1495 1497 1498 1501 1502 1505 1508 1506 1504 1503 1501 1500 1502 1504 1504 1510 1519 1530 1512 1511 1523 1528 1524 1518 1520 1524 1529 1526 1512 1511 1512 1512 1507 1499 1492 1489